QFA516 YSSY-YBBN

Flight info

Callsign QFA516
Flight time 1h 10m
Altitude 37000
Route TESAT H252 OLSEM Y193 BANDA H252 BN
Aircraft B738/M-SDE2E3FGHIRWXY/LB1

Departure

Time 2026-05-07 00:32
Airport Sydney Kingsford Smith International Airport (YSSY)

Arrival

Time 2026-05-07 01:42
Airport Brisbane International Airport (YBBN)
Time Latitude Longitude Altitude Speed Heading
2026-05-07 00:06 -33.93141 151.17802 29 ft 0 kts 192°
2026-05-07 00:16 -33.93118 151.17808 29 ft 4 kts 182°
2026-05-07 00:16 -33.93098 151.17805 29 ft 4 kts 171°
2026-05-07 00:16 -33.93075 151.17808 29 ft 4 kts 226°
2026-05-07 00:17 -33.93066 151.17833 29 ft 3 kts 278°
2026-05-07 00:17 -33.93067 151.17837 29 ft 0 kts 280°
2026-05-07 00:21 -33.93065 151.17821 29 ft 4 kts 279°
2026-05-07 00:21 -33.93056 151.17769 29 ft 9 kts 284°
2026-05-07 00:21 -33.93026 151.17686 29 ft 13 kts 296°
2026-05-07 00:22 -33.93013 151.17578 29 ft 14 kts 245°
2026-05-07 00:22 -33.93089 151.17522 29 ft 12 kts 194°
2026-05-07 00:22 -33.93164 151.17538 29 ft 12 kts 164°
2026-05-07 00:22 -33.93274 151.17567 29 ft 21 kts 170°
2026-05-07 00:23 -33.93428 151.17590 29 ft 22 kts 181°
2026-05-07 00:23 -33.93580 151.17611 29 ft 22 kts 163°
2026-05-07 00:23 -33.93719 151.17674 29 ft 21 kts 159°
2026-05-07 00:23 -33.93850 151.17740 29 ft 20 kts 140°
2026-05-07 00:24 -33.93978 151.17800 28 ft 20 kts 169°
2026-05-07 00:24 -33.94110 151.17830 28 ft 19 kts 170°
2026-05-07 00:24 -33.94237 151.17866 29 ft 18 kts 167°
2026-05-07 00:24 -33.94361 151.17899 29 ft 18 kts 169°
2026-05-07 00:25 -33.94476 151.17897 29 ft 16 kts 198°
2026-05-07 00:25 -33.94584 151.17898 29 ft 15 kts 172°
2026-05-07 00:25 -33.94685 151.17926 29 ft 15 kts 167°
2026-05-07 00:25 -33.94786 151.17951 29 ft 15 kts 168°
2026-05-07 00:26 -33.94899 151.17980 29 ft 19 kts 168°
2026-05-07 00:26 -33.95037 151.18018 29 ft 22 kts 167°
2026-05-07 00:26 -33.95096 151.18129 29 ft 16 kts 79°
2026-05-07 00:26 -33.95068 151.18272 29 ft 20 kts 75°
2026-05-07 00:27 -33.95043 151.18455 29 ft 23 kts 99°
2026-05-07 00:27 -33.95140 151.18575 29 ft 19 kts 140°
2026-05-07 00:27 -33.95242 151.18675 29 ft 19 kts 145°
2026-05-07 00:27 -33.95368 151.18735 29 ft 21 kts 168°
2026-05-07 00:28 -33.95518 151.18771 29 ft 22 kts 164°
2026-05-07 00:28 -33.95669 151.18813 29 ft 22 kts 167°
2026-05-07 00:28 -33.95818 151.18849 29 ft 21 kts 165°
2026-05-07 00:28 -33.95961 151.18889 29 ft 21 kts 168°
2026-05-07 00:29 -33.96101 151.18922 29 ft 20 kts 168°
2026-05-07 00:29 -33.96236 151.18956 29 ft 20 kts 165°
2026-05-07 00:30 -33.96744 151.19068 29 ft 25 kts 186°
2026-05-07 00:30 -33.96859 151.19073 29 ft 24 kts 169°
2026-05-07 00:30 -33.97018 151.19115 29 ft 23 kts 167°
2026-05-07 00:30 -33.97115 151.19265 28 ft 18 kts 80°
2026-05-07 00:31 -33.97074 151.19351 27 ft 18 kts 28°
2026-05-07 00:31 -33.96957 151.19345 25 ft 21 kts 349°
2026-05-07 00:31 -33.96479 151.19222 24 ft 118 kts 348°
2026-05-07 00:31 -33.95407 151.18969 221 ft 185 kts 348°
2026-05-07 00:32 -33.94048 151.18758 1129 ft 212 kts 351°
2026-05-07 00:32 -33.92492 151.19075 1908 ft 244 kts 20°
2026-05-07 00:32 -33.91033 151.20293 2423 ft 270 kts 36°
2026-05-07 00:32 -33.89496 151.21773 2875 ft 295 kts 37°
2026-05-07 00:33 -33.87946 151.23321 4116 ft 288 kts 36°
2026-05-07 00:33 -33.86387 151.24829 5234 ft 286 kts 34°
2026-05-07 00:33 -33.84792 151.26302 6212 ft 291 kts 32°
2026-05-07 00:33 -33.83323 151.28033 7118 ft 305 kts 53°
2026-05-07 00:34 -33.82474 151.30378 8023 ft 314 kts 67°
2026-05-07 00:34 -33.81745 151.32894 8860 ft 322 kts 66°
2026-05-07 00:34 -33.81014 151.35460 9841 ft 321 kts 65°
2026-05-07 00:34 -33.80069 151.37813 10903 ft 308 kts 48°
2026-05-07 00:35 -33.78823 151.39822 11976 ft 299 kts 43°
2026-05-07 00:35 -33.77492 151.41820 12466 ft 317 kts 42°
2026-05-07 00:35 -33.76021 151.43952 12667 ft 343 kts 42°
2026-05-07 00:35 -33.74437 151.46241 12854 ft 369 kts 43°
2026-05-07 00:36 -33.72755 151.48697 13002 ft 392 kts 44°
2026-05-07 00:36 -33.70998 151.51294 13357 ft 408 kts 44°
2026-05-07 00:36 -33.69202 151.53967 13994 ft 414 kts 44°
2026-05-07 00:36 -33.67383 151.56670 14676 ft 417 kts 44°
2026-05-07 00:37 -33.65553 151.59379 15362 ft 419 kts 43°
2026-05-07 00:37 -33.63500 151.61800 15973 ft 409 kts 27°
2026-05-07 00:37 -33.61108 151.63621 16679 ft 407 kts 23°
2026-05-07 00:37 -33.58688 151.65411 17337 ft 411 kts 24°
2026-05-07 00:38 -33.56291 151.67240 17955 ft 416 kts 24°
2026-05-07 00:38 -33.53852 151.69151 18447 ft 422 kts 25°
2026-05-07 00:38 -33.51371 151.71105 18831 ft 429 kts 24°
2026-05-07 00:38 -33.48767 151.72765 19390 ft 420 kts 14°
2026-05-07 00:39 -33.46031 151.73830 20025 ft 410 kts
2026-05-07 00:39 -33.43254 151.74639 20606 ft 411 kts
2026-05-07 00:39 -33.40469 151.75475 21122 ft 415 kts
2026-05-07 00:39 -33.37660 151.76351 21620 ft 419 kts
2026-05-07 00:40 -33.34837 151.77253 22123 ft 422 kts
2026-05-07 00:40 -33.31996 151.78174 22547 ft 425 kts
2026-05-07 00:40 -33.29123 151.79108 22971 ft 429 kts
2026-05-07 00:40 -33.26240 151.80046 23450 ft 431 kts
2026-05-07 00:41 -33.23341 151.80987 23888 ft 433 kts
2026-05-07 00:41 -33.20427 151.81931 24303 ft 434 kts
2026-05-07 00:41 -33.17508 151.82875 24714 ft 435 kts
2026-05-07 00:41 -33.14585 151.83818 25107 ft 436 kts
2026-05-07 00:42 -33.11650 151.84763 25455 ft 438 kts
2026-05-07 00:42 -33.08691 151.85714 25761 ft 441 kts
2026-05-07 00:42 -33.05721 151.86666 26101 ft 443 kts
2026-05-07 00:42 -33.02740 151.87623 26470 ft 444 kts
2026-05-07 00:43 -32.99788 151.88571 26827 ft 445 kts
2026-05-07 00:43 -32.96795 151.89531 27160 ft 446 kts
2026-05-07 00:43 -32.93790 151.90493 27483 ft 448 kts
2026-05-07 00:43 -32.90779 151.91458 27796 ft 449 kts
2026-05-07 00:44 -32.87760 151.92424 28078 ft 450 kts
2026-05-07 00:44 -32.84732 151.93392 28431 ft 450 kts
2026-05-07 00:44 -32.81715 151.94358 28887 ft 448 kts
2026-05-07 00:44 -32.78710 151.95321 29406 ft 445 kts
2026-05-07 00:45 -32.75735 151.96273 29919 ft 442 kts
2026-05-07 00:45 -32.72763 151.97222 30351 ft 440 kts
2026-05-07 00:45 -32.69805 151.98164 30687 ft 440 kts
2026-05-07 00:45 -32.66847 151.99103 30993 ft 440 kts
2026-05-07 00:46 -32.63885 152.00043 31334 ft 440 kts
2026-05-07 00:46 -32.60933 152.00980 31687 ft 439 kts
2026-05-07 00:46 -32.57985 152.01916 32042 ft 438 kts
2026-05-07 00:46 -32.55046 152.02849 32377 ft 438 kts
2026-05-07 00:47 -32.52103 152.03782 32707 ft 437 kts
2026-05-07 00:47 -32.49161 152.04715 33025 ft 437 kts
2026-05-07 00:47 -32.46227 152.05644 33356 ft 436 kts
2026-05-07 00:47 -32.43290 152.06573 33600 ft 437 kts
2026-05-07 00:48 -32.40350 152.07501 33851 ft 438 kts
2026-05-07 00:48 -32.37410 152.08430 34130 ft 438 kts
2026-05-07 00:48 -32.34471 152.09364 34398 ft 437 kts
2026-05-07 00:48 -32.31531 152.10289 34612 ft 438 kts
2026-05-07 00:49 -32.28577 152.11220 34850 ft 439 kts
2026-05-07 00:49 -32.25624 152.12151 35077 ft 439 kts
2026-05-07 00:49 -32.22670 152.13079 35226 ft 440 kts
2026-05-07 00:49 -32.19734 152.13994 35429 ft 441 kts
2026-05-07 00:50 -32.16775 152.14928 35717 ft 440 kts
2026-05-07 00:50 -32.13819 152.15861 35963 ft 440 kts
2026-05-07 00:50 -32.10863 152.16792 36162 ft 441 kts
2026-05-07 00:50 -32.07900 152.17723 36376 ft 441 kts
2026-05-07 00:51 -32.04926 152.18657 36582 ft 442 kts
2026-05-07 00:51 -32.01951 152.19589 36798 ft 442 kts
2026-05-07 00:51 -31.98990 152.20518 36988 ft 441 kts
2026-05-07 00:51 -31.96014 152.21447 37028 ft 442 kts
2026-05-07 00:52 -31.90055 152.23303 37065 ft 442 kts
2026-05-07 00:52 -31.84117 152.25169 37043 ft 441 kts
2026-05-07 00:53 -31.78237 152.27009 37004 ft 440 kts
2026-05-07 00:53 -31.72338 152.28848 37040 ft 438 kts
2026-05-07 00:54 -31.66450 152.30681 37054 ft 438 kts
2026-05-07 00:54 -31.60546 152.32528 37039 ft 439 kts
2026-05-07 00:55 -31.54638 152.34338 37038 ft 438 kts
2026-05-07 00:55 -31.48746 152.36161 37060 ft 438 kts
2026-05-07 00:56 -31.42851 152.37993 37066 ft 438 kts
2026-05-07 00:56 -31.36950 152.39823 37051 ft 439 kts
2026-05-07 00:57 -31.31054 152.41635 36998 ft 438 kts
2026-05-07 00:57 -31.25165 152.43451 37053 ft 437 kts
2026-05-07 00:58 -31.19287 152.45253 37056 ft 437 kts
2026-05-07 00:58 -31.13405 152.47074 37033 ft 437 kts
2026-05-07 00:59 -31.04601 152.49786 37049 ft 439 kts
2026-05-07 01:00 -30.98681 152.51602 37048 ft 441 kts
2026-05-07 01:00 -30.92752 152.53405 37053 ft 441 kts
2026-05-07 01:01 -30.86798 152.55231 37056 ft 443 kts
2026-05-07 01:01 -30.80845 152.57048 37028 ft 441 kts
2026-05-07 01:02 -30.74922 152.59009 37039 ft 444 kts
2026-05-07 01:02 -30.69028 152.61187 37084 ft 445 kts
2026-05-07 01:03 -30.63173 152.63405 37025 ft 446 kts
2026-05-07 01:03 -30.57267 152.65566 37041 ft 445 kts
2026-05-07 01:04 -30.51346 152.67726 37033 ft 447 kts
2026-05-07 01:04 -30.45408 152.69863 37048 ft 447 kts
2026-05-07 01:05 -30.39455 152.72013 37030 ft 448 kts
2026-05-07 01:05 -30.33501 152.74158 37061 ft 447 kts
2026-05-07 01:06 -30.27553 152.76309 37049 ft 448 kts
2026-05-07 01:06 -30.21602 152.78454 37040 ft 448 kts
2026-05-07 01:07 -30.15689 152.80578 36989 ft 448 kts
2026-05-07 01:07 -30.09755 152.82710 37036 ft 447 kts
2026-05-07 01:08 -30.03797 152.84840 37040 ft 448 kts
2026-05-07 01:08 -29.97844 152.86973 37049 ft 447 kts
2026-05-07 01:09 -29.91900 152.89099 36994 ft 447 kts
2026-05-07 01:09 -29.85958 152.91218 37031 ft 447 kts
2026-05-07 01:10 -29.80016 152.93324 37049 ft 447 kts
2026-05-07 01:10 -29.74107 152.95415 37042 ft 447 kts
2026-05-07 01:11 -29.68167 152.97517 36967 ft 447 kts
2026-05-07 01:11 -29.62227 152.99617 37041 ft 446 kts
2026-05-07 01:12 -29.56293 153.01709 37043 ft 446 kts
2026-05-07 01:12 -29.50350 153.03802 37044 ft 447 kts
2026-05-07 01:13 -29.44401 153.05895 37002 ft 447 kts
2026-05-07 01:13 -29.38460 153.07982 37037 ft 446 kts
2026-05-07 01:14 -29.32522 153.10069 37045 ft 447 kts
2026-05-07 01:14 -29.26614 153.12139 37044 ft 447 kts
2026-05-07 01:15 -29.20661 153.14238 36994 ft 447 kts
2026-05-07 01:15 -29.14722 153.16338 37046 ft 446 kts
2026-05-07 01:16 -29.08787 153.18427 37054 ft 447 kts
2026-05-07 01:16 -29.02833 153.20518 37056 ft 447 kts
2026-05-07 01:17 -28.96881 153.22605 37051 ft 447 kts
2026-05-07 01:17 -28.90933 153.24690 37048 ft 447 kts
2026-05-07 01:18 -28.84987 153.26770 37052 ft 447 kts
2026-05-07 01:18 -28.79037 153.28849 37047 ft 447 kts
2026-05-07 01:19 -28.73087 153.30925 37052 ft 447 kts
2026-05-07 01:19 -28.68145 153.32645 37044 ft 447 kts
2026-05-07 01:20 -28.62193 153.34721 37059 ft 447 kts
2026-05-07 01:20 -28.59208 153.35750 36662 ft 452 kts
2026-05-07 01:20 -28.56202 153.36784 36105 ft 449 kts
2026-05-07 01:20 -28.53221 153.37794 35548 ft 447 kts
2026-05-07 01:21 -28.50247 153.38877 34804 ft 450 kts
2026-05-07 01:21 -28.47261 153.39920 34038 ft 448 kts
2026-05-07 01:21 -28.44270 153.40954 33329 ft 447 kts
2026-05-07 01:21 -28.41288 153.41997 32519 ft 449 kts
2026-05-07 01:22 -28.38319 153.43024 31734 ft 449 kts
2026-05-07 01:22 -28.35325 153.44054 30941 ft 449 kts
2026-05-07 01:22 -28.32333 153.45083 30130 ft 450 kts
2026-05-07 01:22 -28.29341 153.46116 29143 ft 450 kts
2026-05-07 01:23 -28.26340 153.47152 28192 ft 451 kts
2026-05-07 01:23 -28.23341 153.48188 27214 ft 452 kts
2026-05-07 01:23 -28.20325 153.49230 26182 ft 454 kts
2026-05-07 01:23 -28.17286 153.50167 25337 ft 445 kts 360°
2026-05-07 01:24 -28.14312 153.50086 24612 ft 416 kts 339°
2026-05-07 01:24 -28.11532 153.49286 23949 ft 415 kts 340°
2026-05-07 01:24 -28.08684 153.48621 23145 ft 431 kts 342°
2026-05-07 01:24 -28.05717 153.48015 22319 ft 431 kts 343°
2026-05-07 01:25 -28.02778 153.47444 21549 ft 426 kts 344°
2026-05-07 01:25 -27.99885 153.46879 20793 ft 420 kts 344°
2026-05-07 01:25 -27.97024 153.46307 20078 ft 415 kts 344°
2026-05-07 01:25 -27.94202 153.45729 19361 ft 410 kts 344°
2026-05-07 01:26 -27.91409 153.45151 18633 ft 406 kts 345°
2026-05-07 01:26 -27.88641 153.44573 17848 ft 403 kts 345°
2026-05-07 01:26 -27.85903 153.44004 17102 ft 398 kts 345°
2026-05-07 01:26 -27.83190 153.43444 16371 ft 394 kts 345°
2026-05-07 01:27 -27.80511 153.42892 15683 ft 389 kts 345°
2026-05-07 01:27 -27.77864 153.42347 15008 ft 385 kts 346°
2026-05-07 01:27 -27.75235 153.41806 14343 ft 382 kts 346°
2026-05-07 01:27 -27.72633 153.41269 13657 ft 378 kts 346°
2026-05-07 01:28 -27.70053 153.40736 12936 ft 375 kts 346°
2026-05-07 01:28 -27.67494 153.40209 12252 ft 372 kts 346°
2026-05-07 01:28 -27.64960 153.39688 11592 ft 369 kts 347°
2026-05-07 01:28 -27.62415 153.39378 11155 ft 364 kts 358°
2026-05-07 01:29 -27.59948 153.39504 11049 ft 348 kts
2026-05-07 01:29 -27.57583 153.39665 10903 ft 334 kts
2026-05-07 01:29 -27.55304 153.39811 10765 ft 321 kts 360°
2026-05-07 01:29 -27.53114 153.39936 10638 ft 309 kts 359°
2026-05-07 01:30 -27.50998 153.40044 10501 ft 299 kts 359°
2026-05-07 01:30 -27.48954 153.40142 10395 ft 289 kts 359°
2026-05-07 01:30 -27.46976 153.40233 10271 ft 280 kts 359°
2026-05-07 01:30 -27.45055 153.40320 10128 ft 272 kts 359°
2026-05-07 01:31 -27.43189 153.40403 9994 ft 265 kts 359°
2026-05-07 01:31 -27.41343 153.40486 9676 ft 265 kts 359°
2026-05-07 01:31 -27.39529 153.40568 9371 ft 264 kts 359°
2026-05-07 01:31 -27.37695 153.40652 9092 ft 263 kts 359°
2026-05-07 01:32 -27.35870 153.40735 8848 ft 263 kts 359°
2026-05-07 01:32 -27.34023 153.40819 8618 ft 268 kts 359°
2026-05-07 01:32 -27.32141 153.40904 8376 ft 272 kts 359°
2026-05-07 01:32 -27.30249 153.40991 8128 ft 272 kts 360°
2026-05-07 01:33 -27.28367 153.41077 7877 ft 270 kts 360°
2026-05-07 01:33 -27.26497 153.41161 7630 ft 268 kts 360°
2026-05-07 01:33 -27.24635 153.41247 7383 ft 266 kts 360°
2026-05-07 01:33 -27.22791 153.41331 7154 ft 265 kts
2026-05-07 01:34 -27.20953 153.41414 6915 ft 263 kts 359°
2026-05-07 01:34 -27.19192 153.41018 6649 ft 258 kts 330°
2026-05-07 01:34 -27.17734 153.39880 6462 ft 256 kts 319°
2026-05-07 01:34 -27.16365 153.38585 6220 ft 259 kts 318°
2026-05-07 01:35 -27.14991 153.37270 5975 ft 258 kts 318°
2026-05-07 01:35 -27.13734 153.35855 5710 ft 255 kts 301°
2026-05-07 01:35 -27.13184 153.34016 5492 ft 248 kts 274°
2026-05-07 01:35 -27.13345 153.32115 5269 ft 245 kts 253°
2026-05-07 01:36 -27.13993 153.30362 5065 ft 242 kts 246°
2026-05-07 01:36 -27.14721 153.28675 4840 ft 239 kts 245°
2026-05-07 01:36 -27.15435 153.27029 4623 ft 235 kts 245°
2026-05-07 01:36 -27.16377 153.25588 4496 ft 228 kts 219°
2026-05-07 01:37 -27.17763 153.24778 4240 ft 222 kts 208°
2026-05-07 01:37 -27.19119 153.24004 3940 ft 216 kts 211°
2026-05-07 01:37 -27.20432 153.23233 3663 ft 210 kts 210°
2026-05-07 01:37 -27.21716 153.22488 3387 ft 205 kts 210°
2026-05-07 01:38 -27.22963 153.21770 3132 ft 199 kts 210°
2026-05-07 01:38 -27.24179 153.21071 2872 ft 193 kts 210°
2026-05-07 01:38 -27.25362 153.20391 2626 ft 188 kts 211°
2026-05-07 01:38 -27.26513 153.19728 2371 ft 185 kts 211°
2026-05-07 01:39 -27.27656 153.19071 2136 ft 184 kts 211°
2026-05-07 01:39 -27.28794 153.18416 1895 ft 184 kts 211°
2026-05-07 01:39 -27.29930 153.17763 1649 ft 181 kts 211°
2026-05-07 01:39 -27.31040 153.17125 1408 ft 179 kts 211°
2026-05-07 01:40 -27.32149 153.16478 1188 ft 180 kts 210°
2026-05-07 01:40 -27.33257 153.15838 891 ft 176 kts 209°
2026-05-07 01:40 -27.34333 153.15247 688 ft 169 kts 209°
2026-05-07 01:40 -27.35365 153.14666 484 ft 163 kts 210°
2026-05-07 01:41 -27.36351 153.14085 290 ft 158 kts 212°
2026-05-07 01:41 -27.37319 153.13520 100 ft 155 kts 211°
2026-05-07 01:41 -27.38246 153.12980 22 ft 137 kts 207°
2026-05-07 01:41 -27.38871 153.12624 20 ft 56 kts 214°
2026-05-07 01:42 -27.39047 153.12388 22 ft 18 kts 238°
2026-05-07 01:42 -27.39111 153.12280 20 ft 15 kts 237°
2026-05-07 01:42 -27.39126 153.12177 23 ft 14 kts 307°
2026-05-07 01:42 -27.39051 153.12159 20 ft 10 kts 21°
2026-05-07 01:43 -27.38991 153.12192 22 ft 10 kts 27°
2026-05-07 01:43 -27.38904 153.12242 20 ft 19 kts 27°
2026-05-07 01:43 -27.38768 153.12320 20 ft 23 kts 27°
2026-05-07 01:43 -27.38626 153.12400 21 ft 22 kts 22°
2026-05-07 01:44 -27.38518 153.12334 20 ft 18 kts 301°
2026-05-07 01:44 -27.38496 153.12218 22 ft 12 kts 244°
2026-05-07 01:44 -27.38489 153.12166 22 ft 5 kts 297°
2026-05-07 01:44 -27.38477 153.12140 20 ft 2 kts 297°
2026-05-07 01:45 -27.38474 153.12135 20 ft 0 kts 297°